Вернуться в каталог

STARLINK-36659

АктивенСвязьVLEO
NORAD 67833·PAYLOAD·🇺🇸 United States

Запущен Feb 16, 2026 с Vandenberg Space Force Base

Loading…

Ближайшие Пролёты (ближайшие 24 часа)

TLE

СвежийSource: CelesTrak SupGP

Эпоха: Sep 15, 2026, 03:26 UTC

1 67833C 26033N   26258.14354167 -.00010050  00000+0 -36396-3 0  2580
2 67833  43.0013 276.9486 0001242 262.9286 339.5824 15.27587278    13

Отслеживайте STARLINK-36659 в реальном времени с AllMySat

Download on the App Store